Погода в Таразе

Поиск расширенной информации на нашем сайте:

Полезная информация:

Новости сайта



02.01.2020
Опубликован Долгосрочный прогноз погоды по городам России и ближнего зарубежья на январь 2020 года.
Карты: Прогноз на январь и февраль 2020 года, Сравнение прогнозируемой аномалии приземной температуры воздуха на январь 2020 года по разным моделям.




Погода в Таразе - сегодня

Время (UTC), дата Ветер
(°,м/с) 
Видим.   Явления Облачность Т
(°С)
Тd
(°С)
f(%) Тe
(°С)
Pmin
(гПа)
dP
(гПа)
Po
(мм)
O2
(г/м3)
Тmin Tmax R s Состояние
почвы
12 03.03.21 тихо ()   20000 м  в посл. час снег  10/0 средняя 
[As op]
+0.4 +0.4 100 1026.1  710  285           
15 03.03.21 тихо ()   10 км    10/0 средняя 
[Ac lent]
+0.5 +0.5 100 +1  1024.6  -1.3  709  285    +0.9       
18 03.03.21 030 (СВ) 10 км    10/0 средняя 
[Ac lent]
+0.2 -0.9 92 +1  1023.5  -1.1  708  285    +0.9     
21 03.03.21 150 (ЮВ) 10 км  в посл. час ливневой дождь  10/10 600 м кучево-дожд. 
[Cb cap]
+1.2 +1.2 100 +2  1021.6  -1.5  707  283           
00 04.03.21 190 (Ю) 10 км  слаб. ливневой дождь  10/10 600 м кучево-дожд. 
[Cb cap]
+1.8 +1.8 100 +3  1020.5  -0.9  706  282           
03 04.03.21 160 (Ю) 20000 м  {ливн. осадки}  10/10 1000 м 
[Sc diur, vesp]
+2.2 +2.2 100 +3  1019.9  -0.4  706  282         
06 04.03.21 180 (Ю) 20000 м    8/4 1000 м средняя 
[Sc diur, vesp|Ac lent]
+10 +9.4 96 +12  1016.6  -0.9  705  272  +0.2       
09 04.03.21 290 (З) 20000 м    10/4 1000 м средняя, верхняя 
[Sc diur, vesp|Ac lent|Ci sp]
+10.8 +9.7 93 +12  1014.9  -1.3  704  271           
12 04.03.21 260 (З) 4000 м  слаб. ливневой дождь  10/10 600 м кучево-дожд. 
[Cb cap]
+5.8 +5.8 100 +6  1017.8  1.2  705  277           
15 04.03.21 190 (Ю) 10 км  слаб. ливневой дождь  10/10 600 м кучево-дожд. 
[Cb cap]
+6.2 +6.2 100 +5  1017.8  0.2  706  277    +11.5       
18 04.03.21 290 (З) 2000 м  ливневой дождь со снегом  10/10 600 м кучево-дожд. 
[Cb cap]
+1.3 +1.3 100 -1  1023.6  709  284    +11.5     
21 04.03.21 330 (СЗ) 10 км  в посл. час ливневой снег  10/10 600 м кучево-дожд. 
[Cb cap]
+0.4 -0.2 96 -1  1028.5  4.2  712  286           
00 05.03.21 тихо ()   10 км  {ливн. осадки}  10/10 600 м кучево-дожд. 
[Cb cap]
+0.8 -0.3 92 +1  1030.9  2.4  713  287           
03 05.03.21 030 (СВ) 20000 м    10/10 600 м кучево-дожд. 
[Cb cap]
+0.3 +0 98 -1  1032.9  1.6  715  288      равномерный
сухой снег
100% 
06 05.03.21 190 (Ю) 50000 м    6/4 1000 м средняя 
[Sc diur, vesp|Ac lent]
+2.5 +0.9 89 +3  1032.5  0.4  715  285  -0.3       
09 05.03.21 040 (СВ) 20000 м    8/6 1000 м средняя 
[Sc diur, vesp|Ac lent]
+5 +1.2 76 +5  1030.3  -1.5  714  282           
12 05.03.21 350 (С) 20000 м    8/0 средняя 
[Ac lent]
+4.8 -2.9 57 +4  1027.9  -2.3  712  282           
15 05.03.21 040 (СВ) 10 км    ясно 
+2 -4.5 62 +1  1026.7  -1.9  711  285    +5.8       
18 05.03.21 тихо ()   10 км    ясно 
-0.6 -2.4 88 -1  1025.3  -2  709  287    +5.8       
21 05.03.21 180 (Ю) 10 км    ясно 
-1 -3.2 85 1023.2  -2  708  286           
00 06.03.21 тихо ()   10 км    10/0 средняя 
[Ac As]
-1.8 -3.6 87 -2  1021.3  -2  706  287           
03 06.03.21 090 (В) 50000 м    10/4 1000 м средняя, верхняя 
[Sc diur, vesp|Ac lent|Ci sp]
+0.4 -2.9 78 +1  1018.4  -2.1  705  284           
06 06.03.21 340 (С) 20000 м    8/0 верхняя 
[Ci sp]
+5.4 -3.1 54 +5  1015.1  -1.6  703  278  -2.3         
09 06.03.21 340 (С) 20000 м    10/6 1000 м средняя, верхняя 
[Sc diur, vesp|Ac lent|Ci sp]
+7.6 -0.7 56 +9  1013.7  -0.7  703  276           
12 06.03.21 320 (СЗ) 20000 м    10/4 1000 м средняя 
[Sc diur, vesp|Ac lent]
+6.8 -0.8 58 +8  1015  704  277           
Время (UTC), дата Ветер
(°,м/с) 
Видим.   Явления Облачность Т
(°С)
Тd
(°С)
f(%) Тe
(°С)
Pmin
(гПа)
dP
(гПа)
Po
(мм)
O2
(г/м3)
Тmin Tmax R s Состояние
почвы

Для получения пояснительной информации подведите курсор к названию столбца.

ПОГОДА в Таразе - архив

Всё, что Вы хотите узнать о погоде в Таразе - удобно и подробно!

Выберите нужную дату (начиная с 1 января 2019* года) и нажмите кнопку "Найти".
Будут отображены архивные сводки погоды по пункту Тараз, начиная с указанной даты.


Отображать данные в формате CSV (для использования в таблицах Excel)


Внимание! Наш архив погоды предназначен исключительно для личного некоммерческого использования в познавательных целях. Если Вам необходимы официальные справки о состоянии погоды (для производственных, юридических, коммерческих и т.п. целей), обращайтесь в органы Росгидромета.

*Примечание: данная дата относится к архиву по метеостанциям СССР (Россия, СНГ, Балтия).
Архив по метеостанциям Зарубежной Европы и Азии (кроме Китая) хранится 10 дней, по другим регионам земного шара (Китай, Африка, Америка, Австралия, Океания) - 1 день.

Тараз - район местоположения метеостанции


Название, широта, долгота, высота метеостанции:
Тараз (город) 42.9°ш. 71.4°д. 651 м над ур. моря [Казахстан]

Дополнительная информация

В oтличие oт бoльшинства пoгoдных сайтoв мы публикуем пoдрoбную метеoинфoрмацию в детальнoм прoфессиoнальнoм фoрмате.

Характеристики температуры и влажнoсти вoздуха измеряются на высoте 2 м в тени вдали oт зданий и деревьев.
Скoрoсть ветра измеряется на высoте 10 м (на урoвне рoста челoвека скoрoсть ветра ниже в 1.5-2 раза). Если метеoстанция нахoдится в гoрoде или в лесу, тo скoрoсть ветра занижена на 2-4 м/с пo сравнению с oткрытым местoм. Скoрoсть ветра над акватoриями крупных рек и oзёр, а также на вершинах хoлмoв на 2-5 м/с выше, чем в oбычных услoвиях.
Атмoсфернoе давление в разных тoчках местнoсти мoжет значительнo oтличаться oт давления на метеoстанции, в зависимoсти oт услoвий рельефа (при пoдъёме на 10 м давление пoнижается примернo на 1 мм рт.ст.).